This is the latest recevied weather packets stored in our database for station/object 9W2UHF-10. If no packets are shown the sender has not sent any weather packets the latest 10 day(s).
| Time | Temp. | Humidity | Pressure | Rain* | Wind** | Luminosity | Snow |
|---|---|---|---|---|---|---|---|
| 1777964453 | 33.89° C | 60% | 1009.4 hPa | - | - | - | - |
| 1777963774 | 33.89° C | 60% | 1009.4 hPa | - | - | - | - |
| 1777962574 | 33.33° C | 62% | 1009.9 hPa | - | - | - | - |
| 1777961374 | 33.33° C | 62% | 1010.4 hPa | - | - | - | - |
| 1777961293 | 32.78° C | 63% | 1010.9 hPa | - | - | - | - |
| 1777960174 | 32.78° C | 63% | 1010.9 hPa | - | - | - | - |
| 1777959023 | 32.78° C | 64% | 1011.2 hPa | - | - | - | - |
| 1777958974 | 32.78° C | 64% | 1011.2 hPa | - | - | - | - |
| 1777957869 | 32.78° C | 65% | 1011.6 hPa | - | - | - | - |
| 1777957773 | 32.78° C | 65% | 1011.6 hPa | - | - | - | - |
| 1777956573 | 32.22° C | 65% | 1011.8 hPa | - | - | - | - |
| 1777955373 | 32.22° C | 66% | 1012.1 hPa | - | - | - | - |
| 1777954173 | 31.67° C | 65% | 1012.4 hPa | - | - | - | - |
| 1777943446 | 29.44° C | 71% | 1012.3 hPa | - | - | - | - |
| 1777943373 | 29.44° C | 71% | 1012.3 hPa | - | - | - | - |
| 1777939773 | 29.44° C | 72% | 1011.4 hPa | - | - | - | - |
| 1777937373 | 29.44° C | 70% | 1011 hPa | - | - | - | - |
| 1777936173 | 29.44° C | 71% | 1010.9 hPa | - | - | - | - |
| 1777928972 | 29.44° C | 71% | 1010.6 hPa | - | - | - | - |
| 1777924172 | 30° C | 70% | 1010.7 hPa | - | - | - | - |
| 1777919374 | 30° C | 70% | 1011.7 hPa | - | - | - | - |
| 1777918173 | 30° C | 72% | 1012 hPa | - | - | - | - |
| 1777915773 | 30° C | 71% | 1012.3 hPa | - | - | - | - |
| 1777914573 | 30.56° C | 70% | 1012.6 hPa | - | - | - | - |
| 1777912173 | 30.56° C | 70% | 1012.8 hPa | - | - | - | - |
* Rain since midnight (hover to see other rain measurements)
** Current wind speed in m/s (hover to see current wind gust speed)